{"data":{"norad_id":67595,"intl_designator":"2026-018G","name":"STARLINK-36628","alt_names":[],"object_type":"PAYLOAD","status":"ACTIVE","operator":null,"country":"US","launch_date":"2026-01-29","launch_site_code":"AFWTR","launch_vehicle":null,"mission":null,"orbit_class":"UNKNOWN","rcs_meters":null,"size_class":null,"mass_kg":null,"dimensions":null,"purposes":["comms"],"wikipedia_slug":null,"has_3d_model":false,"image_url":null,"decayed_at":null,"tle_current":{"epoch":"2026-09-19T10:09:57.210048Z","epoch_age_seconds":161985,"freshness":"FRESH","line1":"1 67595U 26018G   26262.42357882  .00017987  00000+0  55795-3 0  9991","line2":"2 67595  97.2875 325.8687 0000948 105.9766 254.1581 15.33456946 37020","mean_motion":15.33456946,"eccentricity":9.48e-5,"inclination_deg":97.2875,"raan_deg":325.8687,"arg_perigee_deg":105.9766,"mean_anomaly_deg":254.1581,"bstar":0.00055795,"rev_number":3702,"period_min":93.905473104818,"perigee_km":464.8588543065,"apogee_km":466.15640932869,"semimajor_km":6843.6446318176,"source":"CELESTRAK","updated_at":"2026-09-20T09:00:43.602580Z"}}}